Home > Weather > Fukushima > Past weeks

Flag for Japan Weather for the Past 2 Weeks in Fukushima, Japan

Now
48 °F

Light rain. Overcast.


Feels Like: 48 °F
Forecast: 51 / 64 °F
Wind: 2 mph from Southeast

Location: Wakamatsu

Current Time: May 1, 2016 at 3:57:00 AM

Latest Report: May 1, 2016 at 3:00 AM


Visibility: 11 mi

Pressure: 29.94 "Hg

Humidity: 93%

Dew Point: 46 °F

Location of FukushimaLocation

Historic Weather in Fukushima — Graph

°F

Fukushima Temperature Yesterday

Maximum temperature yesterday: 59 °F (at 2:00 PM)
Minimum temperature yesterday: 43 °F (at 4:00 AM)
Average temperature yesterday: 49 °F

High & Low Weather Summary for the Past Weeks

 TemperatureHumidityPressure
High76 °F (Apr 23, 3:00 PM)99% (Apr 22, 2:00 AM)30.32 "Hg (Apr 22, 2:00 AM)
Low34 °F (Apr 16, 4:00 AM)21% (Apr 20, 1:00 PM)29.38 "Hg (Apr 17, 3:00 PM)
Average54 °F69%29.94 "Hg
* Reported Apr 16 2:00 AM — May 1 2:00 AM, Fukushima, Weather by CustomWeather, © 2016

Note: Actual official high and low records may vary slightly from our data, if they occured in-between our weather recording intervals... More about our weather records

Advertising

Fukushima Weather History for the Previous 24 Hours

Scroll right to see more
 ConditionsComfort  
Time TempWeatherWind HumidityBarometerVisibility
2:00 AM
Sun, May 1
48 °FCool.2 mph97%29.94 "Hg7 mi
1:00 AM48 °FLight rain. Overcast.1 mph96%29.96 "Hg9 mi
12:00 AM49 °FCool.3 mph91%29.96 "Hg12 mi
11:00 PM
Sat, Apr 30
48 °FLight rain. Overcast.5 mph88%29.97 "Hg12 mi
10:00 PM49 °FLight rain. Overcast.2 mph85%29.96 "Hg12 mi
9:00 PM49 °FCool.1 mph81%29.96 "Hg12 mi
8:00 PM50 °FCool.3 mph78%29.95 "Hg12 mi
7:00 PM51 °FCool.2 mph74%29.94 "Hg12 mi
4:00 PM53 °FLight rain. Cloudy.7 mph72%29.94 "Hg12 mi
3:00 PM57 °FRefreshingly cool.12 mph45%29.91 "Hg12 mi
2:00 PM59 °FRefreshingly cool.10 mph50%29.89 "Hg12 mi
10:00 AM55 °FCool.14 mph55%29.92 "Hg12 mi
9:00 AM53 °FCool.14 mph58%29.93 "Hg12 mi
8:00 AM51 °FCool.10 mph58%29.93 "Hg12 mi
7:00 AM49 °FCool.10 mph60%29.93 "Hg12 mi
6:00 AM43 °FQuite cool.5 mph68%29.92 "Hg12 mi
5:00 AM43 °FQuite cool.9 mph72%29.91 "Hg12 mi
4:00 AM43 °FQuite cool.8 mph73%29.89 "Hg12 mi
3:00 AM43 °FQuite cool.5 mph78%29.88 "Hg12 mi
Weather by CustomWeather, © 2016

See weather overviewHow to use our weather pages